Regional Weather Roundup
Issued by NWS Goodland, KS

Home | Current Version | Previous Version | Text Only | Print | Product List | Glossary Off
Versions: 1 2 3 4 5 6 7 8 9 10 11 12 13 14 15 16 17 18 19 20 21 22 23 24 25 26 27 28 29 30 31 32 33 34 35 36 37 38 39 40 41 42 43 44 45 46 47 48 49 50

000
ASUS43 KGLD 040108
RWRGLD

GOODLAND FORECAST AREA HOURLY WEATHER ROUNDUP
NATIONAL WEATHER SERVICE GOODLAND KS
700 PM MDT SUN MAY 03 2015

...OFFICIAL OBSERVATIONS...

CITY           SKY/WX    TMP DP  RH WIND       PRES   REMARKS
GOODLAND KS    CLOUDY    75  43  31 N8        29.85S
HILL CITY KS   MOCLDY    78  58  49 S3        29.77R
IMPERIAL NEB   MOCLDY    72  41  32 NE12      29.89R
MCCOOK NEB     PTCLDY    79  44  28 N17       29.82R
AKRON CO       CLOUDY    62  42  47 NW24G32   29.98R
BURLINGTON CO  CLOUDY    75  41  29 NE10      29.89S
LIMON CO       CLOUDY    61  42  49 W10       29.99S
$$

...UNOFFICIAL OBSERVATIONS...

CITY           SKY/WX    TMP DP  RH WIND       PRES   REMARKS
COLBY KS       CLEAR     79  43  27 N8        29.84R
GOVE KS          N/A     78  32  18 MISG        N/A
LENORA KS        N/A     82  32  16 MISG        N/A
NORTON KS      CLEAR     81  37  21 N8        29.77R
SHARON SPRINGS   N/A     72  51  47 MISG        N/A
KIT CARSON CO    N/A     71  41  34 MISG        N/A
$$



USA.gov is the U.S. government's official web portal to all federal, state and local government web resources and services.